BEIDOU-3 M8 (C30)

Last updated on Dec. 12, 2019, 4:25 a.m. UTC

1 43246U 18029B   19345.30460370 -.00000063  00000-0  10000-3 0  9998
2 43246  55.2686  21.9176 0004602 311.3672 174.7786  1.86233094 11563
UTC
Height (km)
Latitude
Longitude
Inclination
Orbital Period
UTC large
Height (km)
Speed (km/s)
/
Latitude / Longitude
Inclination (degrees)
Orbital Period (minutes)
Azimuth
Elevation
Range (km)
Doppler Factor
iOS Compass Heading
iOS Angle

Next 30 passes for location: Hong Kong

Rise time Rise Azimuth (degrees) Set time Set Azimuth (degrees) Duration Max altitude (degrees)

No matching passes for this satellites